Tracking 30510 objects as of 22-May-2025
HD Live streaming from Space Station
objects crossing your sky now

CE-SAT IIB

Track CE-SAT IIB now!
10-day predictions


NORAD ID: 46818
Int'l Code: 2020-077F
Perigee: 410.9 km
Apogee: 419.7 km
Inclination: 97.3 °
Period: 92.7 minutes
Semi major axis: 6786 km
RCS: Unknown
Launch date: October 28, 2020
Source: Japan (JPN)
Launch site: Rocket Lab Launch Complex (RLLC)
Your satellite tracking list
Your tracking list is empty




NASA's NSSDC Master Catalog

Two Line Element Set (TLE):
1 46818U 20077F   25142.19187401  .00025175  00000-0  40519-3 0  9990
2 46818  97.2602 206.7429 0006427 176.1948 183.9356 15.52938571253933
Source of the keplerian elements: AFSPC